Simultaneous Nadir Overpasses (SNOs) Predictions

Prediction of SNOs between AQUA and NPP Satellite Orbit:

Table of predicted SNOs for the next 14.0 days since TLE Epoch: 2/4/2023
Index Date (AQUA) Time (AQUA) Lat,Lon (AQUA) SZA (AQUA ) Date (NPP) Time (NPP) Lat,Lon (NPP) SZA (NPP ) Distance(km) Time Diff (sec)
1 02/05/2023 12:17:22 79.42,-107.46 108.68 02/05/2023 12:17:02 79.42,-107.43 108.69 0.59 20
2 02/05/2023 13:06:42 -79.64, 61.74 71.66 02/05/2023 13:07:41 -79.64, 61.68 71.69 1.17 59
3 02/08/2023 02:53:37 79.31, 32.77 108.05 02/08/2023 02:52:31 79.32, 32.88 108.07 2.46 66
4 02/08/2023 03:42:56 -79.57,-157.79 72.35 02/08/2023 03:43:09 -79.57,-157.75 72.37 0.75 13
5 02/10/2023 18:19:10 -79.43, -17.79 72.97 02/10/2023 18:18:38 -79.43, -17.75 72.95 0.92 32
6 02/10/2023 19:08:28 79.69, 151.70 106.65 02/10/2023 19:09:14 79.70, 151.84 106.59 2.94 46
7 02/13/2023 08:56:52 -75.34, 105.56 68.81 02/13/2023 08:55:38 -75.58, 104.36 68.60 42.16 74
8 02/13/2023 09:44:42 79.55, -68.31 105.99 02/13/2023 09:44:44 79.56, -68.24 105.98 1.46 2
9 02/16/2023 00:20:57 79.34, 71.22 105.42 02/16/2023 00:20:16 79.34, 71.15 105.46 1.64 41



Historial Predications of SNOs between AQUA and NPP
